Time,TemperatureF,DewpointF,PressureIn,WindDirection,WindDirectionDegrees,WindSpeedMPH,WindSpeedGustMPH,Humidity,HourlyPrecipIn,Conditions,Clouds,dailyrainin,SoftwareType,DateUTC
2013-05-03 00:00:00,38.0,33.9,30.17,ESE,123,0.0,17.0,85,0.00,,,0.00,WeatherDisplay:10.37,2013-05-02 23:00:00,
2013-05-03 00:05:00,37.7,33.6,30.17,ESE,123,0.0,1.0,85,0.00,,,0.00,WeatherDisplay:10.37,2013-05-02 23:05:00,
2013-05-03 00:10:00,37.5,33.7,30.17,ESE,123,0.0,0.0,86,0.00,,,0.00,WeatherDisplay:10.37,2013-05-02 23:10:00,
2013-05-03 00:15:00,37.3,33.5,30.17,ESE,123,0.0,0.0,86,0.00,,,0.00,WeatherDisplay:10.37,2013-05-02 23:15:00,
2013-05-03 00:20:00,37.2,33.4,30.17,ESE,123,0.0,0.0,86,0.00,,,0.00,WeatherDisplay:10.37,2013-05-02 23:20:00,
2013-05-03 00:30:00,36.9,33.4,30.17,ESE,123,0.0,0.0,87,0.00,,,0.00,WeatherDisplay:10.37,2013-05-02 23:30:00,
2013-05-03 00:35:00,36.8,33.3,30.17,ESE,123,0.0,0.0,87,0.00,,,0.00,WeatherDisplay:10.37,2013-05-02 23:35:00,
2013-05-03 00:40:00,36.6,33.1,30.17,ESE,123,0.0,0.0,87,0.00,,,0.00,WeatherDisplay:10.37,2013-05-02 23:40:00,
2013-05-03 00:45:00,36.4,33.2,30.17,ESE,123,0.0,0.0,88,0.00,,,0.00,WeatherDisplay:10.37,2013-05-02 23:45:00,
2013-05-03 00:50:00,36.3,33.1,30.16,ESE,123,0.0,0.0,88,0.00,,,0.00,WeatherDisplay:10.37,2013-05-02 23:50:00,
2013-05-03 00:55:00,36.2,33.0,30.16,ESE,123,0.0,0.0,88,0.00,,,0.00,WeatherDisplay:10.37,2013-05-02 23:55:00,
2013-05-03 01:00:00,36.1,32.9,30.16,ESE,123,0.0,0.0,88,0.00,,,0.00,WeatherDisplay:10.37,2013-05-03 00:00:00,
2013-05-03 01:05:00,35.9,32.7,30.16,ESE,123,0.0,0.0,88,0.00,,,0.00,WeatherDisplay:10.37,2013-05-03 00:05:00,
2013-05-03 01:10:00,35.8,32.6,30.16,ESE,123,0.0,0.0,88,0.00,,,0.00,WeatherDisplay:10.37,2013-05-03 00:10:00,
2013-05-03 01:15:00,35.7,32.4,30.16,ESE,123,0.0,0.0,88,0.00,,,0.00,WeatherDisplay:10.37,2013-05-03 00:15:00,
2013-05-03 01:20:00,35.6,32.7,30.15,ESE,123,0.0,0.0,89,0.00,,,0.00,WeatherDisplay:10.37,2013-05-03 00:20:00,
2013-05-03 01:25:00,35.5,32.5,30.15,ESE,123,0.0,0.0,89,0.00,,,0.00,WeatherDisplay:10.37,2013-05-03 00:25:00,
2013-05-03 01:30:00,35.3,32.4,30.15,ESE,123,0.0,0.0,89,0.00,,,0.00,WeatherDisplay:10.37,2013-05-03 00:30:00,
2013-05-03 01:35:00,35.3,32.6,30.15,ESE,123,0.0,0.0,90,0.00,,,0.00,WeatherDisplay:10.37,2013-05-03 00:35:00,
2013-05-03 01:40:00,35.2,32.6,30.15,ESE,123,0.0,0.0,90,0.00,,,0.00,WeatherDisplay:10.37,2013-05-03 00:40:00,
2013-05-03 01:45:00,35.0,32.1,30.15,ESE,123,0.0,0.0,89,0.00,,,0.00,WeatherDisplay:10.37,2013-05-03 00:45:00,
2013-05-03 01:50:00,34.9,32.0,30.15,ESE,123,0.0,0.0,89,0.00,,,0.00,WeatherDisplay:10.37,2013-05-03 00:50:00,
2013-05-03 01:55:00,34.8,32.2,30.15,ESE,123,0.0,0.0,90,0.00,,,0.00,WeatherDisplay:10.37,2013-05-03 00:55:00,
2013-05-03 02:00:00,34.7,32.1,30.15,ESE,123,0.0,0.0,90,0.00,,,0.00,WeatherDisplay:10.37,2013-05-03 01:00:00,
2013-05-03 02:10:00,34.4,31.8,30.14,ESE,123,0.0,1.0,90,0.00,,,0.00,WeatherDisplay:10.37,2013-05-03 01:10:00,
2013-05-03 02:15:00,34.3,31.7,30.14,ESE,123,0.0,1.0,90,0.00,,,0.00,WeatherDisplay:10.37,2013-05-03 01:15:00,
2013-05-03 02:20:00,34.3,31.9,30.14,ESE,123,0.0,1.0,91,0.00,,,0.00,WeatherDisplay:10.37,2013-05-03 01:20:00,
2013-05-03 02:25:00,34.2,31.8,30.14,ESE,123,0.0,1.0,91,0.00,,,0.00,WeatherDisplay:10.37,2013-05-03 01:25:00,
2013-05-03 02:30:00,34.1,31.4,30.14,ESE,123,0.0,1.0,90,0.00,,,0.00,WeatherDisplay:10.37,2013-05-03 01:30:00,
2013-05-03 02:40:00,33.7,31.4,30.14,ESE,123,0.0,1.0,91,0.00,,,0.00,WeatherDisplay:10.37,2013-05-03 01:40:00,
2013-05-03 02:45:00,33.8,31.5,30.14,ESE,123,0.0,1.0,91,0.00,,,0.00,WeatherDisplay:10.37,2013-05-03 01:45:00,
2013-05-03 02:50:00,33.8,31.5,30.14,ESE,123,0.0,1.0,91,0.00,,,0.00,WeatherDisplay:10.37,2013-05-03 01:50:00,
2013-05-03 02:55:00,33.7,31.4,30.14,ESE,123,0.0,1.0,91,0.00,,,0.00,WeatherDisplay:10.37,2013-05-03 01:55:00,
2013-05-03 03:00:00,33.7,31.6,30.14,ESE,123,0.0,1.0,92,0.00,,,0.00,WeatherDisplay:10.37,2013-05-03 02:00:00,
2013-05-03 03:10:00,33.6,31.3,30.14,ESE,123,0.0,1.0,91,0.00,,,0.00,WeatherDisplay:10.37,2013-05-03 02:10:00,
2013-05-03 03:15:00,33.5,31.4,30.14,ESE,123,0.0,1.0,92,0.00,,,0.00,WeatherDisplay:10.37,2013-05-03 02:15:00,
2013-05-03 03:20:00,33.5,31.4,30.13,ESE,123,0.0,1.0,92,0.00,,,0.00,WeatherDisplay:10.37,2013-05-03 02:20:00,
2013-05-03 03:25:00,33.5,31.4,30.13,ESE,123,0.0,1.0,92,0.00,,,0.00,WeatherDisplay:10.37,2013-05-03 02:25:00,
2013-05-03 03:30:00,33.4,31.3,30.13,ESE,123,0.0,0.0,92,0.00,,,0.00,WeatherDisplay:10.37,2013-05-03 02:30:00,
2013-05-03 03:35:00,33.4,31.3,30.13,ESE,123,0.0,1.0,92,0.00,,,0.00,WeatherDisplay:10.37,2013-05-03 02:35:00,
2013-05-03 03:40:00,33.4,31.3,30.13,ESE,123,0.0,1.0,92,0.00,,,0.00,WeatherDisplay:10.37,2013-05-03 02:40:00,
2013-05-03 03:45:00,33.4,31.3,30.13,ESE,123,0.0,1.0,92,0.00,,,0.00,WeatherDisplay:10.37,2013-05-03 02:45:00,
2013-05-03 03:50:00,33.3,31.2,30.12,ESE,123,0.0,1.0,92,0.00,,,0.00,WeatherDisplay:10.37,2013-05-03 02:50:00,
2013-05-03 03:55:00,33.3,31.2,30.12,ESE,123,0.0,1.0,92,0.00,,,0.00,WeatherDisplay:10.37,2013-05-03 02:55:00,
2013-05-03 04:00:00,33.2,31.1,30.12,ESE,123,0.0,1.0,92,0.00,,,0.00,WeatherDisplay:10.37,2013-05-03 03:00:00,
2013-05-03 04:10:00,32.9,30.8,30.12,ESE,123,0.0,1.0,92,0.00,,,0.00,WeatherDisplay:10.37,2013-05-03 03:10:00,
2013-05-03 04:15:00,32.8,30.7,30.12,ESE,123,0.0,1.0,92,0.00,,,0.00,WeatherDisplay:10.37,2013-05-03 03:15:00,
2013-05-03 04:20:00,32.8,30.7,30.12,ESE,123,0.0,1.0,92,0.00,,,0.00,WeatherDisplay:10.37,2013-05-03 03:20:00,
2013-05-03 04:25:00,32.7,30.6,30.12,ESE,123,0.0,1.0,92,0.00,,,0.00,WeatherDisplay:10.37,2013-05-03 03:25:00,
2013-05-03 04:35:00,32.6,30.5,30.11,ESE,123,0.0,1.0,92,0.00,,,0.00,WeatherDisplay:10.37,2013-05-03 03:35:00,
2013-05-03 04:40:00,32.6,30.5,30.11,ESE,123,0.0,1.0,92,0.00,,,0.00,WeatherDisplay:10.37,2013-05-03 03:40:00,
2013-05-03 04:45:00,32.6,30.5,30.11,ESE,123,0.0,1.0,92,0.00,,,0.00,WeatherDisplay:10.37,2013-05-03 03:45:00,
2013-05-03 04:50:00,32.6,30.8,30.11,ESE,123,0.0,1.0,93,0.00,,,0.00,WeatherDisplay:10.37,2013-05-03 03:50:00,
2013-05-03 04:55:00,32.5,30.7,30.11,ESE,123,0.0,1.0,93,0.00,,,0.00,WeatherDisplay:10.37,2013-05-03 03:55:00,
2013-05-03 05:00:00,32.6,30.8,30.11,ESE,123,0.0,1.0,93,0.00,,,0.00,WeatherDisplay:10.37,2013-05-03 04:00:00,
2013-05-03 05:05:00,32.6,30.8,30.11,ESE,123,0.0,1.0,93,0.00,,,0.00,WeatherDisplay:10.37,2013-05-03 04:05:00,
2013-05-03 05:10:00,32.6,30.8,30.11,ESE,123,0.0,1.0,93,0.00,,,0.00,WeatherDisplay:10.37,2013-05-03 04:10:00,
2013-05-03 05:15:00,32.7,30.9,30.11,ESE,123,0.0,1.0,93,0.00,,,0.00,WeatherDisplay:10.37,2013-05-03 04:15:00,
2013-05-03 05:20:00,32.5,30.4,30.11,ESE,123,0.0,1.0,92,0.00,,,0.00,WeatherDisplay:10.37,2013-05-03 04:20:00,
2013-05-03 05:25:00,32.4,30.3,30.11,ESE,123,0.0,1.0,92,0.00,,,0.00,WeatherDisplay:10.37,2013-05-03 04:25:00,
2013-05-03 05:30:00,32.1,30.0,30.11,ESE,123,0.0,2.0,92,0.00,,,0.00,WeatherDisplay:10.37,2013-05-03 04:30:00,
2013-05-03 05:35:00,32.0,29.9,30.11,ESE,123,0.0,2.0,92,0.00,,,0.00,WeatherDisplay:10.37,2013-05-03 04:35:00,
2013-05-03 05:40:00,31.9,29.8,30.11,ESE,123,0.0,2.0,92,0.00,,,0.00,WeatherDisplay:10.37,2013-05-03 04:40:00,
2013-05-03 05:45:00,31.9,29.8,30.11,ESE,123,0.0,2.0,92,0.00,,,0.00,WeatherDisplay:10.37,2013-05-03 04:45:00,
2013-05-03 05:55:00,31.9,30.1,30.11,ESE,123,0.0,2.0,93,0.00,,,0.00,WeatherDisplay:10.37,2013-05-03 04:55:00,
2013-05-03 06:00:00,31.9,30.1,30.11,ESE,123,0.0,2.0,93,0.00,,,0.00,WeatherDisplay:10.37,2013-05-03 05:00:00,
2013-05-03 06:10:00,32.1,30.6,30.11,ESE,123,0.0,2.0,94,0.00,,,0.00,WeatherDisplay:10.37,2013-05-03 05:10:00,
2013-05-03 06:15:00,32.2,30.7,30.11,ESE,123,0.0,2.0,94,0.00,,,0.00,WeatherDisplay:10.37,2013-05-03 05:15:00,
2013-05-03 06:20:00,32.3,30.8,30.12,ESE,123,0.0,2.0,94,0.00,,,0.00,WeatherDisplay:10.37,2013-05-03 05:20:00,
2013-05-03 06:25:00,32.4,30.9,30.12,ESE,123,0.0,2.0,94,0.00,,,0.00,WeatherDisplay:10.37,2013-05-03 05:25:00,
2013-05-03 06:30:00,32.6,31.1,30.12,ESE,123,0.0,2.0,94,0.00,,,0.00,WeatherDisplay:10.37,2013-05-03 05:30:00,
2013-05-03 06:35:00,32.9,31.3,30.12,ESE,123,0.0,2.0,94,0.00,,,0.00,WeatherDisplay:10.37,2013-05-03 05:35:00,
2013-05-03 06:40:00,33.2,32.0,30.12,ESE,123,0.0,2.0,95,0.00,,,0.00,WeatherDisplay:10.37,2013-05-03 05:40:00,
2013-05-03 06:45:00,34.0,32.7,30.12,ESE,123,0.0,2.0,95,0.00,,,0.00,WeatherDisplay:10.37,2013-05-03 05:45:00,
2013-05-03 06:50:00,35.0,34.0,30.12,ESE,123,0.0,2.0,96,0.00,,,0.00,WeatherDisplay:10.37,2013-05-03 05:50:00,
2013-05-03 06:55:00,36.3,35.2,30.12,ESE,123,0.0,2.0,96,0.00,,,0.00,WeatherDisplay:10.37,2013-05-03 05:55:00,
2013-05-03 07:00:00,37.5,36.7,30.12,ESE,123,0.0,0.0,97,0.00,,,0.00,WeatherDisplay:10.37,2013-05-03 06:00:00,
2013-05-03 07:05:00,38.7,37.9,30.12,ESE,123,0.0,0.0,97,0.00,,,0.00,WeatherDisplay:10.37,2013-05-03 06:05:00,
2013-05-03 07:10:00,39.7,38.6,30.12,ESE,123,0.0,2.0,96,0.00,,,0.00,WeatherDisplay:10.37,2013-05-03 06:10:00,
2013-05-03 07:15:00,40.4,38.8,30.12,ESE,123,0.0,2.0,94,0.00,,,0.00,WeatherDisplay:10.37,2013-05-03 06:15:00,
2013-05-03 07:20:00,41.1,39.2,30.12,ESE,123,0.0,2.0,93,0.00,,,0.00,WeatherDisplay:10.37,2013-05-03 06:20:00,
2013-05-03 07:25:00,41.8,39.9,30.12,ESE,123,0.0,2.0,93,0.00,,,0.00,WeatherDisplay:10.37,2013-05-03 06:25:00,
2013-05-03 07:30:00,42.5,40.6,30.12,ESE,123,0.0,2.0,93,0.00,,,0.00,WeatherDisplay:10.37,2013-05-03 06:30:00,
2013-05-03 07:40:00,44.0,41.3,30.12,ESE,123,0.0,2.0,90,0.00,,,0.00,WeatherDisplay:10.37,2013-05-03 06:40:00,
2013-05-03 07:45:00,44.9,41.3,30.12,ESE,123,0.0,2.0,87,0.00,,,0.00,WeatherDisplay:10.37,2013-05-03 06:45:00,
2013-05-03 07:50:00,45.9,41.7,30.12,ESE,123,0.0,2.0,85,0.00,,,0.00,WeatherDisplay:10.37,2013-05-03 06:50:00,
2013-05-03 07:55:00,46.9,41.7,30.12,ESE,123,0.0,2.0,82,0.00,,,0.00,WeatherDisplay:10.37,2013-05-03 06:55:00,
2013-05-03 08:00:00,47.9,42.3,30.12,ESE,123,2.0,5.0,81,0.00,,,0.00,WeatherDisplay:10.37,2013-05-03 07:00:00,
2013-05-03 08:05:00,48.9,42.7,30.12,East,81,2.0,6.0,79,0.00,,,0.00,WeatherDisplay:10.37,2013-05-03 07:05:00,
2013-05-03 08:10:00,49.7,42.8,30.12,NW,321,1.0,6.0,77,0.00,,,0.00,WeatherDisplay:10.37,2013-05-03 07:10:00,
2013-05-03 08:15:00,50.4,43.1,30.12,NW,304,2.0,7.0,76,0.00,,,0.00,WeatherDisplay:10.37,2013-05-03 07:15:00,
2013-05-03 08:20:00,51.1,42.8,30.12,WNW,303,3.0,7.0,73,0.00,,,0.00,WeatherDisplay:10.37,2013-05-03 07:20:00,
2013-05-03 08:25:00,51.8,43.0,30.12,NW,307,3.0,6.0,72,0.00,,,0.00,WeatherDisplay:10.37,2013-05-03 07:25:00,
2013-05-03 08:30:00,52.4,43.3,30.12,NW,312,3.0,5.0,71,0.00,,,0.00,WeatherDisplay:10.37,2013-05-03 07:30:00,
2013-05-03 08:35:00,53.0,43.5,30.12,NW,318,1.0,4.0,70,0.00,,,0.00,WeatherDisplay:10.37,2013-05-03 07:35:00,
2013-05-03 08:40:00,53.7,43.0,30.12,NNW,332,1.0,6.0,67,0.00,,,0.00,WeatherDisplay:10.37,2013-05-03 07:40:00,
2013-05-03 08:45:00,54.2,43.5,30.12,NW,316,2.0,7.0,67,0.00,,,0.00,WeatherDisplay:10.37,2013-05-03 07:45:00,
2013-05-03 08:50:00,54.6,43.5,30.12,NW,309,5.0,7.0,66,0.00,,,0.00,WeatherDisplay:10.37,2013-05-03 07:50:00,
2013-05-03 08:55:00,55.0,43.0,30.12,NNW,328,2.0,6.0,64,0.00,,,0.00,WeatherDisplay:10.37,2013-05-03 07:55:00,
2013-05-03 09:00:00,55.3,43.3,30.12,NW,317,2.0,7.0,64,0.00,,,0.00,WeatherDisplay:10.37,2013-05-03 08:00:00,
2013-05-03 09:10:00,56.0,42.7,30.12,NW,325,3.0,9.0,61,0.00,,,0.00,WeatherDisplay:10.37,2013-05-03 08:10:00,
2013-05-03 09:15:00,56.3,43.9,30.12,NW,320,3.0,6.0,63,0.00,,,0.00,WeatherDisplay:10.37,2013-05-03 08:15:00,
2013-05-03 09:20:00,56.6,43.7,30.12,NW,306,2.0,5.0,62,0.00,,,0.00,WeatherDisplay:10.37,2013-05-03 08:20:00,
2013-05-03 09:25:00,56.7,43.4,30.12,NW,307,2.0,5.0,61,0.00,,,0.00,WeatherDisplay:10.37,2013-05-03 08:25:00,
2013-05-03 09:30:00,56.9,43.2,30.12,NW,318,2.0,6.0,60,0.00,,,0.00,WeatherDisplay:10.37,2013-05-03 08:30:00,
2013-05-03 09:40:00,57.5,43.7,30.12,WNW,299,2.0,7.0,60,0.00,,,0.00,WeatherDisplay:10.37,2013-05-03 08:40:00,
2013-05-03 09:45:00,57.7,43.0,30.12,NW,306,2.0,6.0,58,0.00,,,0.00,WeatherDisplay:10.37,2013-05-03 08:45:00,
2013-05-03 09:50:00,57.8,43.1,30.12,NW,324,3.0,5.0,58,0.00,,,0.00,WeatherDisplay:10.37,2013-05-03 08:50:00,
2013-05-03 09:55:00,58.3,44.5,30.12,NW,316,3.0,7.0,60,0.00,,,0.00,WeatherDisplay:10.37,2013-05-03 08:55:00,
2013-05-03 10:00:00,58.7,44.0,30.12,WNW,301,5.0,9.0,58,0.00,,,0.00,WeatherDisplay:10.37,2013-05-03 09:00:00,
2013-05-03 10:10:00,59.1,43.9,30.12,NW,323,3.0,7.0,57,0.00,,,0.00,WeatherDisplay:10.37,2013-05-03 09:10:00,
2013-05-03 10:15:00,59.2,43.5,30.12,NW,316,2.0,7.0,56,0.00,,,0.00,WeatherDisplay:10.37,2013-05-03 09:15:00,
2013-05-03 10:20:00,59.3,44.1,30.12,WNW,287,3.0,7.0,57,0.00,,,0.00,WeatherDisplay:10.37,2013-05-03 09:20:00,
2013-05-03 10:25:00,59.5,43.3,30.12,West,278,2.0,6.0,55,0.00,,,0.00,WeatherDisplay:10.37,2013-05-03 09:25:00,
2013-05-03 10:30:00,59.7,43.5,30.12,WNW,287,3.0,9.0,55,0.00,,,0.00,WeatherDisplay:10.37,2013-05-03 09:30:00,
2013-05-03 10:35:00,59.9,42.7,30.12,WNW,282,5.0,7.0,53,0.00,,,0.00,WeatherDisplay:10.37,2013-05-03 09:35:00,
2013-05-03 10:40:00,60.1,42.9,30.12,West,272,1.0,5.0,53,0.00,,,0.00,WeatherDisplay:10.37,2013-05-03 09:40:00,
2013-05-03 10:45:00,60.3,42.6,30.12,WNW,285,2.0,5.0,52,0.00,,,0.00,WeatherDisplay:10.37,2013-05-03 09:45:00,
2013-05-03 10:50:00,60.6,43.9,30.11,WNW,286,2.0,10.0,54,0.00,,,0.00,WeatherDisplay:10.37,2013-05-03 09:50:00,
2013-05-03 10:55:00,61.0,44.7,30.11,WNW,286,3.0,10.0,55,0.00,,,0.00,WeatherDisplay:10.37,2013-05-03 09:55:00,
2013-05-03 11:00:00,61.5,44.2,30.11,WNW,297,2.0,10.0,53,0.00,,,0.00,WeatherDisplay:10.37,2013-05-03 10:00:00,
2013-05-03 11:10:00,62.4,44.0,30.11,WNW,299,2.0,7.0,51,0.00,CLR,,0.00,WeatherDisplay:10.37,2013-05-03 10:10:00,
2013-05-03 11:25:00,62.4,43.0,30.11,WNW,287,2.0,12.0,49,0.00,,,0.00,WeatherDisplay:10.37,2013-05-03 10:25:00,
2013-05-03 11:30:00,62.8,43.4,30.11,West,273,2.0,10.0,49,0.00,,,0.00,WeatherDisplay:10.37,2013-05-03 10:30:00,
2013-05-03 11:40:00,63.5,44.0,30.11,West,278,2.0,10.0,49,0.00,,,0.00,WeatherDisplay:10.37,2013-05-03 10:40:00,
2013-05-03 11:45:00,63.8,44.8,30.11,West,274,3.0,13.0,50,0.00,,,0.00,WeatherDisplay:10.37,2013-05-03 10:45:00,
2013-05-03 11:50:00,64.1,45.6,30.10,WNW,296,3.0,7.0,51,0.00,,,0.00,WeatherDisplay:10.37,2013-05-03 10:50:00,
2013-05-03 11:55:00,64.4,46.9,30.10,WNW,298,3.0,9.0,53,0.00,,,0.00,WeatherDisplay:10.37,2013-05-03 10:55:00,
2013-05-03 12:00:00,64.7,45.1,30.10,WNW,292,5.0,10.0,49,0.00,,,0.00,WeatherDisplay:10.37,2013-05-03 11:00:00,
2013-05-03 12:10:00,65.3,44.5,30.10,WNW,297,5.0,9.0,47,0.00,CLR,,0.00,WeatherDisplay:10.37,2013-05-03 11:10:00,
2013-05-03 12:15:00,65.0,44.3,30.10,WNW,283,2.0,7.0,47,0.00,CLR,,0.00,WeatherDisplay:10.37,2013-05-03 11:15:00,
2013-05-03 12:20:00,64.9,45.3,30.10,WNW,282,6.0,12.0,49,0.00,CLR,,0.00,WeatherDisplay:10.37,2013-05-03 11:20:00,
2013-05-03 12:25:00,65.0,44.3,30.09,WNW,291,5.0,9.0,47,0.00,CLR,,0.00,WeatherDisplay:10.37,2013-05-03 11:25:00,
2013-05-03 12:30:00,65.3,44.5,30.09,NW,304,5.0,12.0,47,0.00,CLR,,0.00,WeatherDisplay:10.37,2013-05-03 11:30:00,
2013-05-03 12:35:00,65.4,41.7,30.09,WNW,299,5.0,12.0,42,0.00,CLR,,0.00,WeatherDisplay:10.37,2013-05-03 11:35:00,
2013-05-03 12:40:00,65.6,41.9,30.09,WNW,283,8.0,13.0,42,0.00,CLR,,0.00,WeatherDisplay:10.37,2013-05-03 11:40:00,
2013-05-03 12:45:00,65.6,40.6,30.09,West,278,7.0,15.0,40,0.00,CLR,,0.00,WeatherDisplay:10.37,2013-05-03 11:45:00,
2013-05-03 12:50:00,65.6,41.3,30.09,West,280,1.0,7.0,41,0.00,CLR,,0.00,WeatherDisplay:10.37,2013-05-03 11:50:00,
2013-05-03 12:55:00,65.6,40.6,30.09,West,277,6.0,14.0,40,0.00,CLR,,0.00,WeatherDisplay:10.37,2013-05-03 11:55:00,
2013-05-03 13:00:00,65.6,41.3,30.09,West,269,5.0,12.0,41,0.00,CLR,,0.00,WeatherDisplay:10.37,2013-05-03 12:00:00,
2013-05-03 13:10:00,65.7,43.2,30.09,WNW,286,9.0,16.0,44,0.00,,,0.00,WeatherDisplay:10.37,2013-05-03 12:10:00,
2013-05-03 13:15:00,65.8,43.3,30.09,WNW,293,7.0,16.0,44,0.00,,,0.00,WeatherDisplay:10.37,2013-05-03 12:15:00,
2013-05-03 13:20:00,65.9,43.9,30.09,WNW,287,8.0,16.0,45,0.00,,,0.00,WeatherDisplay:10.37,2013-05-03 12:20:00,
2013-05-03 13:25:00,66.0,44.7,30.09,WNW,293,7.0,13.0,46,0.00,,,0.00,WeatherDisplay:10.37,2013-05-03 12:25:00,
2013-05-03 13:30:00,66.1,45.3,30.09,WNW,300,6.0,15.0,47,0.00,,,0.00,WeatherDisplay:10.37,2013-05-03 12:30:00,
2013-05-03 13:40:00,66.1,46.9,30.09,WNW,302,5.0,12.0,50,0.00,,,0.00,WeatherDisplay:10.37,2013-05-03 12:40:00,
2013-05-03 13:45:00,66.2,46.0,30.09,WNW,302,5.0,10.0,48,0.00,,,0.00,WeatherDisplay:10.37,2013-05-03 12:45:00,
2013-05-03 13:50:00,66.3,46.6,30.09,NW,307,8.0,13.0,49,0.00,,,0.00,WeatherDisplay:10.37,2013-05-03 12:50:00,
2013-05-03 13:55:00,66.3,47.1,30.08,NW,308,6.0,12.0,50,0.00,,,0.00,WeatherDisplay:10.37,2013-05-03 12:55:00,
2013-05-03 14:00:00,66.3,46.5,30.08,NW,311,6.0,16.0,49,0.00,,,0.00,WeatherDisplay:10.37,2013-05-03 13:00:00,
2013-05-03 14:05:00,66.4,47.7,30.08,NW,312,6.0,12.0,51,0.00,,,0.00,WeatherDisplay:10.37,2013-05-03 13:05:00,
2013-05-03 14:10:00,66.9,47.1,30.08,WNW,298,5.0,12.0,49,0.00,,,0.00,WeatherDisplay:10.37,2013-05-03 13:10:00,
2013-05-03 14:15:00,66.9,48.7,30.08,WNW,291,5.0,12.0,52,0.00,,,0.00,WeatherDisplay:10.37,2013-05-03 13:15:00,
2013-05-03 14:20:00,66.9,46.6,30.08,West,279,7.0,13.0,48,0.00,,,0.00,WeatherDisplay:10.37,2013-05-03 13:20:00,
2013-05-03 14:25:00,66.6,46.3,30.08,West,266,6.0,14.0,48,0.00,,,0.00,WeatherDisplay:10.37,2013-05-03 13:25:00,
2013-05-03 14:30:00,66.4,46.7,30.08,West,275,10.0,16.0,49,0.00,,,0.00,WeatherDisplay:10.37,2013-05-03 13:30:00,
2013-05-03 14:40:00,66.5,47.3,30.07,West,275,9.0,13.0,50,0.00,,,0.00,WeatherDisplay:10.37,2013-05-03 13:40:00,
2013-05-03 14:45:00,66.5,48.3,30.07,West,280,7.0,13.0,52,0.00,,,0.00,WeatherDisplay:10.37,2013-05-03 13:45:00,
2013-05-03 14:50:00,66.6,47.9,30.07,WNW,283,6.0,12.0,51,0.00,,,0.00,WeatherDisplay:10.37,2013-05-03 13:50:00,
2013-05-03 14:55:00,66.5,48.3,30.07,West,278,6.0,15.0,52,0.00,,,0.00,WeatherDisplay:10.37,2013-05-03 13:55:00,
2013-05-03 15:00:00,66.5,48.8,30.07,WNW,290,6.0,13.0,53,0.00,,,0.00,WeatherDisplay:10.37,2013-05-03 14:00:00,
2013-05-03 15:05:00,66.5,47.8,30.07,WNW,303,5.0,12.0,51,0.00,,,0.00,WeatherDisplay:10.37,2013-05-03 14:05:00,
2013-05-03 15:10:00,66.4,49.2,30.07,WNW,290,8.0,12.0,54,0.00,,,0.00,WeatherDisplay:10.37,2013-05-03 14:10:00,
2013-05-03 15:15:00,66.4,48.3,30.07,WNW,283,6.0,17.0,52,0.00,,,0.00,WeatherDisplay:10.37,2013-05-03 14:15:00,
2013-05-03 15:20:00,66.4,47.7,30.07,West,278,8.0,15.0,51,0.00,,,0.00,WeatherDisplay:10.37,2013-05-03 14:20:00,
2013-05-03 15:25:00,66.4,48.7,30.07,WNW,290,6.0,13.0,53,0.00,,,0.00,WeatherDisplay:10.37,2013-05-03 14:25:00,
2013-05-03 15:30:00,66.2,48.6,30.07,WNW,295,6.0,16.0,53,0.00,,,0.00,WeatherDisplay:10.37,2013-05-03 14:30:00,
2013-05-03 15:40:00,66.1,48.0,30.06,West,280,2.0,16.0,52,0.00,,,0.00,WeatherDisplay:10.37,2013-05-03 14:40:00,
2013-05-03 15:45:00,66.0,48.9,30.06,WNW,285,8.0,14.0,54,0.00,,,0.00,WeatherDisplay:10.37,2013-05-03 14:45:00,
2013-05-03 15:50:00,65.8,48.2,30.06,WNW,296,7.0,13.0,53,0.00,,,0.00,WeatherDisplay:10.37,2013-05-03 14:50:00,
2013-05-03 15:55:00,65.6,48.0,30.06,WNW,299,3.0,12.0,53,0.00,,,0.00,WeatherDisplay:10.37,2013-05-03 14:55:00,
2013-05-03 16:00:00,65.5,48.4,30.06,WNW,285,6.0,13.0,54,0.00,,,0.00,WeatherDisplay:10.37,2013-05-03 15:00:00,
2013-05-03 16:05:00,65.5,48.4,30.06,WNW,289,6.0,12.0,54,0.00,CLR,,0.00,WeatherDisplay:10.37,2013-05-03 15:05:00,
2013-05-03 16:10:00,65.6,48.0,30.06,WNW,289,5.0,12.0,53,0.00,CLR,,0.00,WeatherDisplay:10.37,2013-05-03 15:10:00,
2013-05-03 16:15:00,65.6,47.0,30.06,West,269,5.0,12.0,51,0.00,CLR,,0.00,WeatherDisplay:10.37,2013-05-03 15:15:00,
2013-05-03 16:20:00,65.5,47.9,30.06,West,275,5.0,9.0,53,0.00,CLR,,0.00,WeatherDisplay:10.37,2013-05-03 15:20:00,
2013-05-03 16:25:00,65.7,48.6,30.06,WNW,301,6.0,16.0,54,0.00,CLR,,0.00,WeatherDisplay:10.37,2013-05-03 15:25:00,
2013-05-03 16:30:00,65.5,47.9,30.06,WNW,295,6.0,13.0,53,0.00,CLR,,0.00,WeatherDisplay:10.37,2013-05-03 15:30:00,
2013-05-03 16:40:00,65.3,48.2,30.06,WNW,283,7.0,12.0,54,0.00,CLR,,0.00,WeatherDisplay:10.37,2013-05-03 15:40:00,
2013-05-03 16:45:00,64.9,47.4,30.06,WNW,287,3.0,14.0,53,0.00,CLR,,0.00,WeatherDisplay:10.37,2013-05-03 15:45:00,
2013-05-03 16:50:00,64.6,47.6,30.06,WNW,290,5.0,12.0,54,0.00,CLR,,0.00,WeatherDisplay:10.37,2013-05-03 15:50:00,
2013-05-03 16:55:00,64.2,46.7,30.06,West,277,6.0,12.0,53,0.00,CLR,,0.00,WeatherDisplay:10.37,2013-05-03 15:55:00,
2013-05-03 17:00:00,63.9,47.0,30.06,WNW,287,5.0,13.0,54,0.00,CLR,,0.00,WeatherDisplay:10.37,2013-05-03 16:00:00,
2013-05-03 17:05:00,63.7,47.7,30.05,NW,307,6.0,12.0,56,0.00,CLR,,0.00,WeatherDisplay:10.37,2013-05-03 16:05:00,
2013-05-03 17:10:00,63.5,48.0,30.05,NW,306,6.0,12.0,57,0.00,CLR,,0.00,WeatherDisplay:10.37,2013-05-03 16:10:00,
2013-05-03 17:15:00,63.3,47.8,30.05,NW,304,7.0,13.0,57,0.00,CLR,,0.00,WeatherDisplay:10.37,2013-05-03 16:15:00,
2013-05-03 17:20:00,63.0,47.0,30.05,NW,306,6.0,14.0,56,0.00,CLR,,0.00,WeatherDisplay:10.37,2013-05-03 16:20:00,
2013-05-03 17:25:00,62.7,47.2,30.05,WNW,297,9.0,12.0,57,0.00,CLR,,0.00,WeatherDisplay:10.37,2013-05-03 16:25:00,
2013-05-03 17:30:00,62.5,47.1,30.05,WNW,288,7.0,13.0,57,0.00,CLR,,0.00,WeatherDisplay:10.37,2013-05-03 16:30:00,
2013-05-03 17:40:00,62.4,47.4,30.05,WNW,292,5.0,10.0,58,0.00,CLR,,0.00,WeatherDisplay:10.37,2013-05-03 16:40:00,
2013-05-03 17:45:00,62.3,46.9,30.05,WNW,283,6.0,12.0,57,0.00,CLR,,0.00,WeatherDisplay:10.37,2013-05-03 16:45:00,
2013-05-03 17:50:00,62.0,46.6,30.05,WNW,283,8.0,14.0,57,0.00,CLR,,0.00,WeatherDisplay:10.37,2013-05-03 16:50:00,
2013-05-03 17:55:00,61.8,46.9,30.05,WNW,291,8.0,13.0,58,0.00,CLR,,0.00,WeatherDisplay:10.37,2013-05-03 16:55:00,
2013-05-03 18:00:00,61.6,46.6,30.05,WNW,285,8.0,15.0,58,0.00,CLR,,0.00,WeatherDisplay:10.37,2013-05-03 17:00:00,
2013-05-03 18:10:00,61.2,46.8,30.05,West,280,5.0,8.0,59,0.00,CLR,,0.00,WeatherDisplay:10.37,2013-05-03 17:10:00,
2013-05-03 18:15:00,61.0,46.6,30.05,WNW,285,7.0,13.0,59,0.00,CLR,,0.00,WeatherDisplay:10.37,2013-05-03 17:15:00,
2013-05-03 18:20:00,60.9,46.5,30.05,West,280,7.0,12.0,59,0.00,CLR,,0.00,WeatherDisplay:10.37,2013-05-03 17:20:00,
2013-05-03 18:25:00,60.7,46.3,30.04,West,274,8.0,13.0,59,0.00,CLR,,0.00,WeatherDisplay:10.37,2013-05-03 17:25:00,
2013-05-03 18:30:00,60.7,46.3,30.04,WNW,282,5.0,12.0,59,0.00,CLR,,0.00,WeatherDisplay:10.37,2013-05-03 17:30:00,
2013-05-03 18:35:00,60.5,46.5,30.04,WNW,286,6.0,12.0,60,0.00,CLR,,0.00,WeatherDisplay:10.37,2013-05-03 17:35:00,
2013-05-03 18:40:00,60.2,45.8,30.04,WNW,282,9.0,14.0,59,0.00,CLR,,0.00,WeatherDisplay:10.37,2013-05-03 17:40:00,
2013-05-03 18:45:00,59.7,45.8,30.04,WNW,292,2.0,12.0,60,0.00,CLR,,0.00,WeatherDisplay:10.37,2013-05-03 17:45:00,
2013-05-03 18:50:00,59.3,45.8,30.04,WNW,293,8.0,13.0,61,0.00,CLR,,0.00,WeatherDisplay:10.37,2013-05-03 17:50:00,
2013-05-03 18:55:00,59.1,45.7,30.04,West,268,6.0,12.0,61,0.00,CLR,,0.00,WeatherDisplay:10.37,2013-05-03 17:55:00,
2013-05-03 19:00:00,59.0,45.6,30.04,West,268,6.0,12.0,61,0.00,CLR,,0.00,WeatherDisplay:10.37,2013-05-03 18:00:00,
2013-05-03 19:05:00,58.9,45.5,30.04,West,279,8.0,14.0,61,0.00,CLR,,0.00,WeatherDisplay:10.37,2013-05-03 18:05:00,
2013-05-03 19:10:00,58.8,45.4,30.05,WNW,295,5.0,14.0,61,0.00,CLR,,0.00,WeatherDisplay:10.37,2013-05-03 18:10:00,
2013-05-03 19:15:00,58.5,45.1,30.05,WNW,295,6.0,12.0,61,0.00,CLR,,0.00,WeatherDisplay:10.37,2013-05-03 18:15:00,
2013-05-03 19:20:00,58.3,45.3,30.04,WNW,295,5.0,9.0,62,0.00,CLR,,0.00,WeatherDisplay:10.37,2013-05-03 18:20:00,
2013-05-03 19:25:00,58.0,45.1,30.04,WNW,292,5.0,12.0,62,0.00,CLR,,0.00,WeatherDisplay:10.37,2013-05-03 18:25:00,
2013-05-03 19:30:00,57.8,44.9,30.04,WNW,285,5.0,12.0,62,0.00,CLR,,0.00,WeatherDisplay:10.37,2013-05-03 18:30:00,
2013-05-03 19:40:00,57.2,44.7,30.05,WNW,287,5.0,12.0,63,0.00,CLR,,0.00,WeatherDisplay:10.37,2013-05-03 18:40:00,
2013-05-03 19:45:00,56.9,44.8,30.05,WNW,292,5.0,12.0,64,0.00,CLR,,0.00,WeatherDisplay:10.37,2013-05-03 18:45:00,
2013-05-03 19:50:00,56.6,45.0,30.04,WNW,284,2.0,6.0,65,0.00,CLR,,0.00,WeatherDisplay:10.37,2013-05-03 18:50:00,
2013-05-03 19:55:00,56.4,45.2,30.04,WNW,282,2.0,9.0,66,0.00,CLR,,0.00,WeatherDisplay:10.37,2013-05-03 18:55:00,
2013-05-03 20:00:00,56.1,45.3,30.04,WNW,286,3.0,6.0,67,0.00,CLR,,0.00,WeatherDisplay:10.37,2013-05-03 19:00:00,
2013-05-03 20:05:00,55.9,45.1,30.04,WNW,291,2.0,6.0,67,0.00,,,0.00,WeatherDisplay:10.37,2013-05-03 19:05:00,
2013-05-03 20:10:00,55.7,45.3,30.05,WNW,292,2.0,6.0,68,0.00,,,0.00,WeatherDisplay:10.37,2013-05-03 19:10:00,
2013-05-03 20:15:00,55.4,45.0,30.05,WNW,291,3.0,5.0,68,0.00,,,0.00,WeatherDisplay:10.37,2013-05-03 19:15:00,
2013-05-03 20:20:00,55.1,45.1,30.05,WNW,290,2.0,7.0,69,0.00,,,0.00,WeatherDisplay:10.37,2013-05-03 19:20:00,
2013-05-03 20:25:00,54.8,44.8,30.05,WNW,293,2.0,6.0,69,0.00,,,0.00,WeatherDisplay:10.37,2013-05-03 19:25:00,
2013-05-03 20:30:00,54.5,44.9,30.05,WNW,296,3.0,9.0,70,0.00,,,0.00,WeatherDisplay:10.37,2013-05-03 19:30:00,
2013-05-03 20:35:00,54.2,44.7,30.05,WNW,294,2.0,6.0,70,0.00,,,0.00,WeatherDisplay:10.37,2013-05-03 19:35:00,
2013-05-03 20:45:00,53.7,44.5,30.05,WNW,298,3.0,9.0,71,0.00,,,0.00,WeatherDisplay:10.37,2013-05-03 19:45:00,
2013-05-03 20:50:00,53.4,44.2,30.05,WNW,301,3.0,9.0,71,0.00,,,0.00,WeatherDisplay:10.37,2013-05-03 19:50:00,
2013-05-03 20:55:00,53.1,44.0,30.06,WNW,292,5.0,12.0,71,0.00,,,0.00,WeatherDisplay:10.37,2013-05-03 19:55:00,
2013-05-03 21:00:00,52.9,43.7,30.06,WNW,291,5.0,12.0,71,0.00,,,0.00,WeatherDisplay:10.37,2013-05-03 20:00:00,
2013-05-03 21:05:00,52.6,43.5,30.06,WNW,294,3.0,12.0,71,0.00,,,0.00,WeatherDisplay:10.37,2013-05-03 20:05:00,
2013-05-03 21:10:00,52.5,43.3,30.06,WNW,293,6.0,10.0,71,0.00,,,0.00,WeatherDisplay:10.37,2013-05-03 20:10:00,
2013-05-03 21:15:00,52.4,43.3,30.06,WNW,298,2.0,8.0,71,0.00,,,0.00,WeatherDisplay:10.37,2013-05-03 20:15:00,
2013-05-03 21:20:00,52.3,43.5,30.06,WNW,294,5.0,9.0,72,0.00,,,0.00,WeatherDisplay:10.37,2013-05-03 20:20:00,
2013-05-03 21:25:00,52.2,43.4,30.06,WNW,287,3.0,7.0,72,0.00,,,0.00,WeatherDisplay:10.37,2013-05-03 20:25:00,
2013-05-03 21:30:00,52.1,43.3,30.06,WNW,292,3.0,7.0,72,0.00,,,0.00,WeatherDisplay:10.37,2013-05-03 20:30:00,
2013-05-03 21:40:00,52.0,42.9,30.06,WNW,286,3.0,7.0,71,0.00,,,0.00,WeatherDisplay:10.37,2013-05-03 20:40:00,
2013-05-03 21:45:00,51.9,42.8,30.06,WNW,285,3.0,8.0,71,0.00,,,0.00,WeatherDisplay:10.37,2013-05-03 20:45:00,
2013-05-03 21:50:00,51.8,42.7,30.06,WNW,284,3.0,6.0,71,0.00,,,0.00,WeatherDisplay:10.37,2013-05-03 20:50:00,
2013-05-03 21:55:00,51.7,42.6,30.06,WNW,282,5.0,10.0,71,0.00,,,0.00,WeatherDisplay:10.37,2013-05-03 20:55:00,
2013-05-03 22:00:00,51.5,42.8,30.06,West,278,2.0,6.0,72,0.00,,,0.00,WeatherDisplay:10.37,2013-05-03 21:00:00,
2013-05-03 22:05:00,51.4,42.7,30.06,West,276,2.0,9.0,72,0.00,,,0.00,WeatherDisplay:10.37,2013-05-03 21:05:00,
2013-05-03 22:10:00,51.3,43.0,30.07,West,278,2.0,5.0,73,0.00,,,0.00,WeatherDisplay:10.37,2013-05-03 21:10:00,
2013-05-03 22:15:00,51.2,42.8,30.07,West,281,2.0,5.0,73,0.00,,,0.00,WeatherDisplay:10.37,2013-05-03 21:15:00,
2013-05-03 22:20:00,51.1,43.1,30.06,WNW,283,5.0,9.0,74,0.00,,,0.00,WeatherDisplay:10.37,2013-05-03 21:20:00,
2013-05-03 22:25:00,51.0,43.0,30.06,WNW,287,3.0,7.0,74,0.00,,,0.00,WeatherDisplay:10.37,2013-05-03 21:25:00,
2013-05-03 22:30:00,50.9,43.3,30.06,WNW,294,3.0,6.0,75,0.00,,,0.00,WeatherDisplay:10.37,2013-05-03 21:30:00,
2013-05-03 22:35:00,50.9,43.3,30.06,WNW,295,3.0,6.0,75,0.00,,,0.00,WeatherDisplay:10.37,2013-05-03 21:35:00,
2013-05-03 22:40:00,50.8,43.5,30.06,WNW,285,2.0,7.0,76,0.00,,,0.00,WeatherDisplay:10.37,2013-05-03 21:40:00,
2013-05-03 22:50:00,50.8,43.5,30.06,West,280,2.0,6.0,76,0.00,,,0.00,WeatherDisplay:10.37,2013-05-03 21:50:00,
2013-05-03 22:55:00,50.8,43.5,30.06,West,279,3.0,6.0,76,0.00,,,0.00,WeatherDisplay:10.37,2013-05-03 21:55:00,
2013-05-03 23:00:00,50.8,43.5,30.06,West,278,2.0,5.0,76,0.00,,,0.00,WeatherDisplay:10.37,2013-05-03 22:00:00,
2013-05-03 23:05:00,50.6,43.0,30.06,West,278,2.0,5.0,75,0.00,,,0.00,WeatherDisplay:10.37,2013-05-03 22:05:00,
2013-05-03 23:10:00,50.5,42.9,30.06,WNW,282,2.0,5.0,75,0.00,,,0.00,WeatherDisplay:10.37,2013-05-03 22:10:00,
2013-05-03 23:15:00,50.2,42.6,30.06,WNW,286,2.0,5.0,75,0.00,,,0.00,WeatherDisplay:10.37,2013-05-03 22:15:00,
2013-05-03 23:20:00,50.0,42.7,30.06,WNW,286,3.0,7.0,76,0.00,,,0.00,WeatherDisplay:10.37,2013-05-03 22:20:00,
2013-05-03 23:25:00,49.7,42.4,30.06,WNW,283,3.0,7.0,76,0.00,,,0.00,WeatherDisplay:10.37,2013-05-03 22:25:00,
2013-05-03 23:30:00,49.5,42.2,30.06,WNW,282,3.0,7.0,76,0.00,,,0.00,WeatherDisplay:10.37,2013-05-03 22:30:00,
2013-05-03 23:35:00,49.2,42.0,30.06,WNW,282,2.0,6.0,76,0.00,,,0.00,WeatherDisplay:10.37,2013-05-03 22:35:00,
2013-05-03 23:40:00,49.0,42.1,30.06,WNW,282,2.0,6.0,77,0.00,,,0.00,WeatherDisplay:10.37,2013-05-03 22:40:00,
2013-05-03 23:45:00,48.8,41.9,30.06,WNW,282,2.0,5.0,77,0.00,,,0.00,WeatherDisplay:10.37,2013-05-03 22:45:00,
2013-05-03 23:50:00,48.7,41.8,30.05,West,281,2.0,4.0,77,0.00,,,0.00,WeatherDisplay:10.37,2013-05-03 22:50:00,
2013-05-03 23:55:00,48.6,41.7,30.05,West,281,2.0,4.0,77,0.00,,,0.00,WeatherDisplay:10.37,2013-05-03 22:55:00,